TNO1122 MHLM-TXKF

Flight info

Callsign TNO1122
Flight time N/A
Altitude 35000
Route GABIX1 GABIX DCT UNG DCT DUTAN DCT RAJAY M328 CNNOR/M078F350 M328 GRAMN DCT BDA
Aircraft A319/M-SDE3FGHIRWY/LB1

Departure

Time 2026-04-29 15:56
Airport Ramón Villeda Morales International Airport (MHLM)

Arrival

Time N/A
Airport L.F. Wade International Airport (TXKF)
Time Latitude Longitude Altitude Speed Heading
2026-04-29 15:45 15.44721 -87.93195 95 ft 0 kts 309°
2026-04-29 15:48 15.44721 -87.93196 95 ft 0 kts 309°
2026-04-29 15:52 15.44714 -87.93186 95 ft 2 kts 312°
2026-04-29 15:52 15.44701 -87.93173 95 ft 3 kts 321°
2026-04-29 15:53 15.44687 -87.93163 95 ft 0 kts 329°
2026-04-29 15:53 15.44677 -87.93183 95 ft 9 kts 224°
2026-04-29 15:53 15.44613 -87.93199 95 ft 10 kts 156°
2026-04-29 15:53 15.44535 -87.93184 95 ft 16 kts 210°
2026-04-29 15:54 15.44469 -87.93241 95 ft 8 kts 223°
2026-04-29 15:54 15.44430 -87.93277 95 ft 8 kts 221°
2026-04-29 15:54 15.44388 -87.93316 95 ft 9 kts 221°
2026-04-29 15:54 15.44320 -87.93361 95 ft 13 kts 171°
2026-04-29 15:55 15.44279 -87.93301 95 ft 10 kts 112°
2026-04-29 15:55 15.44268 -87.93236 95 ft 8 kts 73°
2026-04-29 15:55 15.44292 -87.93206 95 ft 0 kts 40°
2026-04-29 15:55 15.44377 -87.93132 95 ft 51 kts 40°
2026-04-29 15:56 15.44938 -87.92639 95 ft 160 kts 40°
2026-04-29 15:56 15.45999 -87.91706 496 ft 219 kts 40°
2026-04-29 15:56 15.47112 -87.90726 771 ft 212 kts 40°
2026-04-29 15:56 15.48253 -87.89698 1224 ft 226 kts 40°
2026-04-29 15:57 15.49484 -87.88613 1683 ft 236 kts 40°
2026-04-29 15:57 15.50749 -87.87504 2145 ft 240 kts 40°
2026-04-29 15:57 15.52032 -87.86383 2599 ft 242 kts 40°
2026-04-29 15:57 15.53320 -87.85258 3048 ft 242 kts 41°
2026-04-29 15:58 15.54611 -87.84123 3500 ft 244 kts 41°
2026-04-29 15:58 15.55903 -87.82977 3949 ft 245 kts 42°
2026-04-29 15:58 15.57186 -87.81835 4397 ft 246 kts 42°
2026-04-29 15:58 15.58489 -87.80671 4846 ft 248 kts 42°
2026-04-29 15:59 15.59802 -87.79496 5299 ft 250 kts 42°
2026-04-29 15:59 15.61124 -87.78312 5750 ft 252 kts 42°
2026-04-29 15:59 15.62458 -87.77116 6203 ft 254 kts 43°
2026-04-29 15:59 15.63798 -87.75912 6655 ft 256 kts 43°
2026-04-29 16:00 15.65148 -87.74698 7111 ft 258 kts 43°
2026-04-29 16:00 15.66512 -87.73470 7565 ft 260 kts 43°
2026-04-29 16:00 15.67875 -87.72254 8004 ft 262 kts 42°
2026-04-29 16:00 15.69284 -87.71042 8457 ft 263 kts 41°
2026-04-29 16:01 15.70716 -87.69836 8908 ft 266 kts 40°
2026-04-29 16:01 15.72167 -87.68624 9362 ft 268 kts 40°
2026-04-29 16:01 15.73630 -87.67407 9817 ft 270 kts 40°
2026-04-29 16:01 15.75101 -87.66184 10272 ft 271 kts 40°
2026-04-29 16:02 15.76576 -87.64958 10722 ft 272 kts 40°
2026-04-29 16:02 15.78041 -87.63740 11169 ft 273 kts 40°
2026-04-29 16:02 15.79528 -87.62502 11621 ft 274 kts 40°
2026-04-29 16:02 15.81025 -87.61255 12075 ft 275 kts 39°
2026-04-29 16:03 15.82519 -87.60009 12526 ft 276 kts 39°
2026-04-29 16:03 15.84020 -87.58757 12978 ft 277 kts 39°
2026-04-29 16:03 15.85508 -87.57515 13424 ft 278 kts 39°
2026-04-29 16:03 15.87017 -87.56256 13875 ft 279 kts 39°
2026-04-29 16:04 15.88536 -87.54987 14328 ft 280 kts 39°
2026-04-29 16:04 15.90062 -87.53712 14780 ft 281 kts 39°
2026-04-29 16:04 15.91588 -87.52437 15231 ft 282 kts 39°
2026-04-29 16:04 15.93103 -87.51171 15678 ft 283 kts 39°
2026-04-29 16:05 15.94644 -87.49882 16131 ft 284 kts 39°
2026-04-29 16:05 15.96190 -87.48589 16582 ft 285 kts 38°
2026-04-29 16:05 15.97743 -87.47290 17035 ft 287 kts 38°
2026-04-29 16:05 15.99302 -87.45986 17486 ft 288 kts 38°
2026-04-29 16:06 16.00866 -87.44677 17939 ft 289 kts 38°
2026-04-29 16:06 16.02442 -87.43358 18392 ft 290 kts 38°
2026-04-29 16:06 16.04002 -87.42053 18838 ft 291 kts 38°
2026-04-29 16:06 16.05582 -87.40730 19289 ft 292 kts 38°
2026-04-29 16:07 16.07185 -87.39389 19752 ft 300 kts 38°
2026-04-29 16:07 16.08282 -87.38471 20066 ft 311 kts 38°